Location: Lussas
(44.6119°N, 4.4726°E)
Time: 16:33:42
(UTC+00:00)

ERS-2 - Pass Details

Date: 26 November 2020
Orbit: 492 x 498 km, 98.6° (Epoch: 28 January)

Event Time Altitude Azimuth Distance (km) Brightness Sun altitude
Rises 05:18:39 0° 196° (SSW) 2,561 5.7 -16.5°
Reaches altitude 10° 05:21:04 10° 212° (SSW) 1,686 4.6 -16.0°
Enters shadow 05:22:25 17° 231° (SW) 1,308 3.9 -15.8°
